| time (UTC) | temp F | wind direction | speed knots | gust knots | rain 1hr in | rain 24hr in | rain mn in | humidity % | barometer mb |
| 20260906105525 | 69 | 335 | 0.0 | 0.0 | 0.00 | 0.18 | 0.00 | 76 | 1011.9 |
| 20260906105027 | 69 | 335 | 0.0 | 0.0 | 0.00 | 0.18 | 0.00 | 76 | 1011.9 |
| 20260906104525 | 69 | 335 | 0.0 | 0.0 | 0.00 | 0.18 | 0.00 | 76 | 1011.8 |
| 20260906104022 | 69 | 335 | 0.0 | 0.0 | 0.00 | 0.18 | 0.00 | 76 | 1011.6 |
| 20260906103521 | 69 | 335 | 0.0 | 0.0 | 0.00 | 0.18 | 0.00 | 76 | 1011.5 |
| 20260906103021 | 70 | 335 | 0.0 | 0.0 | 0.00 | 0.18 | 0.00 | 76 | 1011.5 |
| 20260906102526 | 70 | 336 | 0.0 | 0.0 | 0.00 | 0.18 | 0.00 | 76 | 1011.4 |
| 20260906102020 | 70 | 336 | 0.0 | 0.0 | 0.00 | 0.18 | 0.00 | 76 | 1011.4 |
| 20260906101523 | 70 | 336 | 0.0 | 0.0 | 0.00 | 0.18 | 0.00 | 75 | 1011.4 |
| 20260906101019 | 70 | 336 | 0.0 | 0.0 | 0.00 | 0.18 | 0.00 | 75 | 1011.4 |
| 20260906100521 | 70 | 336 | 0.0 | 0.0 | 0.00 | 0.18 | 0.00 | 75 | 1011.4 |
| 20260906100024 | 70 | 336 | 0.0 | 0.0 | 0.00 | 0.18 | 0.00 | 75 | 1011.4 |
| 20260906095525 | 70 | 335 | 0.0 | 0.0 | 0.00 | 0.18 | 0.00 | 75 | 1011.4 |
| 20260906095018 | 70 | 335 | 0.0 | 0.0 | 0.00 | 0.18 | 0.00 | 75 | 1011.3 |
| 20260906094518 | 70 | 336 | 0.0 | 0.0 | 0.00 | 0.18 | 0.00 | 75 | 1011.3 |
| 20260906094021 | 70 | 335 | 0.0 | 0.0 | 0.00 | 0.18 | 0.00 | 75 | 1011.2 |
| 20260906093518 | 70 | 335 | 0.0 | 0.0 | 0.00 | 0.18 | 0.00 | 75 | 1011.3 |
| 20260906093020 | 70 | 335 | 0.0 | 0.9 | 0.00 | 0.18 | 0.00 | 75 | 1011.3 |
| 20260906092516 | 69 | 335 | 0.0 | 0.9 | 0.00 | 0.18 | 0.00 | 75 | 1011.2 |
| 20260906092019 | 70 | 335 | 0.0 | 0.0 | 0.00 | 0.18 | 0.00 | 75 | 1011.2 |
| 20260906091523 | 70 | 336 | 0.0 | 0.0 | 0.00 | 0.18 | 0.00 | 75 | 1011.1 |
| 20260906091015 | 70 | 336 | 0.0 | 0.0 | 0.00 | 0.18 | 0.00 | 75 | 1011.1 |
| 20260906090517 | 70 | 336 | 0.0 | 0.0 | 0.00 | 0.18 | 0.00 | 75 | 1011.1 |
| 20260906090016 | 70 | 336 | 0.0 | 0.0 | 0.00 | 0.18 | 0.00 | 75 | 1011.1 |
| 20260906085514 | 70 | 336 | 0.0 | 0.0 | 0.00 | 0.18 | 0.00 | 75 | 1011.1 |
| 20260906085013 | 70 | 336 | 0.0 | 0.0 | 0.00 | 0.18 | 0.00 | 75 | 1011.1 |
| 20260906084513 | 71 | 336 | 0.0 | 0.0 | 0.00 | 0.18 | 0.00 | 75 | 1011.0 |
| 20260906084012 | 71 | 336 | 0.0 | 0.0 | 0.00 | 0.18 | 0.00 | 75 | 1011.0 |
| 20260906083513 | 71 | 336 | 0.0 | 0.0 | 0.00 | 0.18 | 0.00 | 75 | 1010.9 |
| 20260906083012 | 71 | 336 | 0.0 | 0.0 | 0.00 | 0.18 | 0.00 | 74 | 1010.9 |
| 20260906082511 | 71 | 336 | 0.0 | 0.0 | 0.00 | 0.18 | 0.00 | 74 | 1011.0 |
| 20260906082011 | 71 | 336 | 0.0 | 0.0 | 0.00 | 0.18 | 0.00 | 74 | 1011.0 |
| 20260906081517 | 71 | 336 | 0.0 | 0.0 | 0.00 | 0.18 | 0.00 | 74 | 1011.0 |
| 20260906081011 | 71 | 336 | 0.0 | 0.0 | 0.00 | 0.18 | 0.00 | 74 | 1010.9 |
| 20260906080511 | 71 | 336 | 0.0 | 0.0 | 0.00 | 0.18 | 0.00 | 74 | 1010.9 |
| 20260906080013 | 71 | 336 | 0.0 | 0.0 | 0.00 | 0.18 | 0.00 | 74 | 1011.0 |
| 20260906075510 | 71 | 336 | 0.0 | 0.0 | 0.00 | 0.18 | 0.00 | 74 | 1011.0 |
| 20260906075013 | 71 | 336 | 0.0 | 0.0 | 0.00 | 0.18 | 0.00 | 74 | 1011.0 |
| 20260906074509 | 71 | 336 | 0.0 | 0.0 | 0.00 | 0.18 | 0.00 | 74 | 1010.9 |
| 20260906074008 | 71 | 336 | 0.0 | 0.0 | 0.00 | 0.18 | 0.00 | 74 | 1010.9 |
| 20260906073508 | 71 | 336 | 0.0 | 0.0 | 0.00 | 0.18 | 0.00 | 74 | 1010.9 |
| 20260906073008 | 72 | 336 | 0.0 | 0.0 | 0.00 | 0.18 | 0.00 | 74 | 1010.9 |
| 20260906072507 | 72 | 336 | 0.0 | 0.0 | 0.00 | 0.18 | 0.00 | 74 | 1010.8 |
| 20260906072008 | 72 | 336 | 0.0 | 0.0 | 0.00 | 0.18 | 0.00 | 73 | 1010.9 |
| 20260906071506 | 72 | 336 | 0.0 | 0.0 | 0.00 | 0.18 | 0.00 | 73 | 1010.8 |
| 20260906071006 | 72 | 336 | 0.0 | 0.0 | 0.00 | 0.18 | 0.00 | 74 | 1010.8 |
| 20260906070505 | 72 | 336 | 0.0 | 0.0 | 0.00 | 0.18 | 0.00 | 74 | 1010.8 |
| 20260906070005 | 72 | 336 | 0.0 | 0.0 | 0.00 | 0.18 | 0.00 | 74 | 1010.9 |
| 20260906065505 | 72 | 336 | 0.0 | 0.0 | 0.00 | 0.18 | 0.00 | 73 | 1011.0 |
| 20260906065005 | 72 | 336 | 0.0 | 0.0 | 0.00 | 0.18 | 0.00 | 73 | 1011.0 |
| 20260906064504 | 72 | 336 | 0.0 | 0.0 | 0.00 | 0.18 | 0.00 | 73 | 1011.1 |
| 20260906064004 | 72 | 336 | 0.0 | 0.0 | 0.00 | 0.18 | 0.00 | 73 | 1011.2 |
| 20260906063507 | 73 | 336 | 0.0 | 0.0 | 0.00 | 0.18 | 0.00 | 73 | 1011.2 |
| 20260906063003 | 73 | 294 | 0.0 | 0.0 | 0.00 | 0.18 | 0.00 | 73 | 1011.2 |
| 20260906062502 | 73 | 294 | 0.0 | 0.0 | 0.00 | 0.18 | 0.00 | 72 | 1011.2 |
| 20260906062002 | 73 | 294 | 0.0 | 0.0 | 0.00 | 0.18 | 0.00 | 72 | 1011.1 |
| 20260906061503 | 73 | 271 | 0.0 | 0.0 | 0.00 | 0.18 | 0.00 | 72 | 1011.1 |
| 20260906061002 | 73 | 213 | 0.0 | 0.0 | 0.00 | 0.18 | 0.00 | 72 | 1010.9 |
| 20260906060502 | 73 | 213 | 0.0 | 0.0 | 0.00 | 0.18 | 0.00 | 72 | 1010.9 |
| 20260906060002 | 74 | 213 | 0.0 | 0.0 | 0.00 | 0.18 | 0.00 | 71 | 1010.9 |
| 20260906055503 | 74 | 213 | 0.0 | 0.0 | 0.00 | 0.18 | 0.00 | 71 | 1010.9 |
| 20260906055002 | 74 | 213 | 0.0 | 0.0 | 0.00 | 0.18 | 0.00 | 72 | 1010.8 |
| 20260906054501 | 74 | 213 | 0.0 | 0.0 | 0.00 | 0.18 | 0.00 | 72 | 1010.9 |
| 20260906054100 | 74 | 213 | 0.0 | 0.0 | 0.00 | 0.18 | 0.00 | 72 | 1010.9 |
| 20260906053559 | 74 | 211 | 0.0 | 0.0 | 0.00 | 0.18 | 0.00 | 72 | 1011.1 |
| 20260906053101 | 74 | 218 | 0.0 | 0.0 | 0.00 | 0.18 | 0.00 | 72 | 1011.1 |
| 20260906052558 | 74 | 218 | 0.0 | 0.0 | 0.00 | 0.18 | 0.00 | 72 | 1011.1 |
| 20260906052058 | 74 | 223 | 0.0 | 0.0 | 0.00 | 0.18 | 0.00 | 72 | 1011.2 |
| 20260906051611 | 74 | 223 | 0.0 | 0.0 | 0.00 | 0.18 | 0.00 | 72 | 1011.2 |
| 20260906051057 | 73 | 223 | 0.0 | 0.0 | 0.00 | 0.18 | 0.00 | 72 | 1011.2 |
| 20260906050559 | 73 | 223 | 0.0 | 0.0 | 0.00 | 0.18 | 0.00 | 72 | 1011.1 |
| 20260906050057 | 73 | 223 | 0.0 | 0.0 | 0.00 | 0.18 | 0.00 | 73 | 1011.1 |
| 20260906045557 | 73 | 217 | 0.0 | 0.0 | 0.00 | 0.18 | 0.00 | 73 | 1011.1 |
| 20260906045100 | 73 | 215 | 0.0 | 0.0 | 0.00 | 0.18 | 0.00 | 73 | 1011.2 |
| 20260906044606 | 73 | 215 | 0.0 | 0.0 | 0.00 | 0.18 | 0.00 | 73 | 1011.2 |
| 20260906044056 | 73 | 213 | 0.0 | 0.0 | 0.00 | 0.18 | 0.00 | 73 | 1011.2 |
| 20260906043556 | 73 | 226 | 0.0 | 0.0 | 0.00 | 0.18 | 0.00 | 74 | 1011.2 |
| 20260906043054 | 73 | 227 | 0.0 | 0.0 | 0.00 | 0.18 | 0.00 | 75 | 1011.2 |
| 20260906042553 | 73 | 203 | 0.0 | 0.0 | 0.00 | 0.18 | 0.00 | 75 | 1011.0 |
| 20260906042053 | 73 | 213 | 0.0 | 0.0 | 0.00 | 0.18 | 0.00 | 75 | 1011.0 |
| 20260906041553 | 72 | 198 | 0.0 | 0.0 | 0.00 | 0.18 | 0.00 | 75 | 1011.0 |
| 20260906041052 | 73 | 191 | 0.0 | 0.0 | 0.00 | 0.18 | 0.00 | 75 | 1011.0 |
| 20260906040551 | 73 | 189 | 0.0 | 0.0 | 0.00 | 0.18 | 0.00 | 75 | 1011.1 |
| 20260906040126 | 73 | 189 | 0.0 | 0.0 | 0.00 | 0.18 | 0.00 | 75 | 1011.1 |
| 20260906035550 | 73 | 189 | 0.0 | 0.0 | 0.00 | 0.18 | 0.18 | 75 | 1011.1 |
| 20260906035050 | 73 | 189 | 0.0 | 0.0 | 0.00 | 0.18 | 0.18 | 75 | 1011.1 |
| 20260906034602 | 73 | 189 | 0.0 | 0.0 | 0.00 | 0.18 | 0.18 | 75 | 1011.1 |
| 20260906034049 | 73 | 189 | 0.0 | 0.0 | 0.00 | 0.18 | 0.18 | 75 | 1011.0 |
| 20260906033549 | 73 | 190 | 0.0 | 0.0 | 0.00 | 0.18 | 0.18 | 75 | 1010.9 |
| 20260906033103 | 73 | 190 | 0.0 | 0.0 | 0.00 | 0.18 | 0.18 | 75 | 1010.9 |
| 20260906032549 | 73 | 194 | 0.0 | 0.0 | 0.00 | 0.18 | 0.18 | 75 | 1011.0 |
| 20260906032049 | 73 | 201 | 0.0 | 0.0 | 0.00 | 0.18 | 0.18 | 75 | 1011.0 |
| 20260906031549 | 73 | 215 | 0.0 | 0.0 | 0.00 | 0.18 | 0.18 | 76 | 1010.9 |
| 20260906031049 | 73 | 211 | 0.0 | 0.0 | 0.00 | 0.18 | 0.18 | 76 | 1010.9 |
| 20260906030549 | 73 | 192 | 0.0 | 0.0 | 0.00 | 0.18 | 0.18 | 76 | 1011.0 |
| 20260906030049 | 73 | 199 | 0.0 | 0.0 | 0.00 | 0.18 | 0.18 | 76 | 1011.0 |
| 20260906025548 | 73 | 194 | 0.0 | 0.0 | 0.00 | 0.18 | 0.18 | 76 | 1011.0 |
| 20260906025048 | 73 | 194 | 0.0 | 0.0 | 0.00 | 0.18 | 0.18 | 76 | 1011.1 |
| 20260906024600 | 73 | 183 | 0.0 | 0.0 | 0.00 | 0.18 | 0.18 | 76 | 1011.0 |
| 20260906024048 | 73 | 183 | 0.0 | 0.0 | 0.00 | 0.18 | 0.18 | 76 | 1010.9 |
| 20260906023547 | 73 | 183 | 0.0 | 0.0 | 0.00 | 0.18 | 0.18 | 76 | 1010.8 |
| 20260906023057 | 73 | 184 | 0.0 | 0.0 | 0.00 | 0.18 | 0.18 | 76 | 1010.9 |
| 20260906022548 | 73 | 184 | 0.0 | 0.0 | 0.01 | 0.18 | 0.18 | 76 | 1010.8 |
| 20260906022047 | 74 | 207 | 0.0 | 0.0 | 0.01 | 0.18 | 0.18 | 76 | 1010.9 |
| 20260906021547 | 73 | 207 | 0.0 | 0.0 | 0.12 | 0.18 | 0.18 | 76 | 1010.8 |
| 20260906021046 | 73 | 209 | 0.0 | 0.0 | 0.18 | 0.18 | 0.18 | 76 | 1010.9 |
| 20260906020546 | 73 | 209 | 0.0 | 0.0 | 0.18 | 0.18 | 0.18 | 76 | 1011.1 |
| 20260906020047 | 73 | 217 | 0.0 | 0.0 | 0.18 | 0.18 | 0.18 | 76 | 1011.1 |
| 20260906015546 | 73 | 219 | 0.0 | 0.0 | 0.18 | 0.18 | 0.18 | 76 | 1011.0 |
| 20260906015046 | 73 | 227 | 0.0 | 0.0 | 0.18 | 0.18 | 0.18 | 75 | 1010.9 |
| 20260906014546 | 73 | 229 | 0.0 | 0.0 | 0.18 | 0.18 | 0.18 | 75 | 1010.7 |
| 20260906014046 | 73 | 232 | 0.0 | 0.0 | 0.18 | 0.18 | 0.18 | 75 | 1010.5 |
| 20260906013545 | 73 | 213 | 0.0 | 0.9 | 0.18 | 0.18 | 0.18 | 75 | 1010.1 |
| 20260906013044 | 72 | 132 | 0.0 | 0.9 | 0.18 | 0.18 | 0.18 | 73 | 1009.9 |
| 20260906012544 | 73 | 150 | 0.0 | 0.9 | 0.17 | 0.17 | 0.17 | 72 | 1010.0 |
| 20260906012042 | 73 | 141 | 0.0 | 0.9 | 0.17 | 0.17 | 0.17 | 65 | 1009.8 |
| 20260906011541 | 80 | 288 | 0.0 | 0.9 | 0.06 | 0.06 | 0.06 | 58 | 1010.6 |
| 20260906011041 | 83 | 335 | 0.0 | 0.0 | 0.00 | 0.00 | 0.00 | 58 | 1009.7 |
| 20260906010541 | 84 | 24 | 0.0 | 0.0 | 0.00 | 0.00 | 0.00 | 57 | 1009.4 |
| 20260906010041 | 84 | 24 | 0.0 | 0.0 | 0.00 | 0.00 | 0.00 | 58 | 1009.6 |
| 20260906005543 | 85 | 24 | 0.0 | 0.0 | 0.00 | 0.00 | 0.00 | 56 | 1009.4 |
| 20260906005040 | 85 | 24 | 0.0 | 0.0 | 0.00 | 0.00 | 0.00 | 55 | 1009.4 |
| 20260906004540 | 85 | 24 | 0.0 | 0.0 | 0.00 | 0.00 | 0.00 | 55 | 1009.5 |
| 20260906004039 | 86 | 24 | 0.0 | 0.0 | 0.00 | 0.00 | 0.00 | 55 | 1009.4 |
| 20260906003540 | 86 | 24 | 0.0 | 0.0 | 0.00 | 0.00 | 0.00 | 54 | 1009.4 |
| 20260906003039 | 86 | 24 | 0.0 | 0.0 | 0.00 | 0.00 | 0.00 | 54 | 1009.4 |
| 20260906002541 | 86 | 24 | 0.0 | 0.0 | 0.00 | 0.00 | 0.00 | 54 | 1009.5 |
| 20260906002042 | 86 | 24 | 0.0 | 0.0 | 0.00 | 0.00 | 0.00 | 54 | 1009.5 |
| 20260906001539 | 87 | 24 | 0.0 | 0.0 | 0.00 | 0.00 | 0.00 | 53 | 1009.6 |
| 20260906001038 | 88 | 24 | 0.0 | 0.0 | 0.00 | 0.00 | 0.00 | 51 | 1009.7 |
| 20260906000538 | 89 | 24 | 0.0 | 0.0 | 0.00 | 0.00 | 0.00 | 50 | 1009.8 |
| 20260906000038 | 89 | 24 | 0.0 | 0.0 | 0.00 | 0.00 | 0.00 | 50 | 1010.0 |
| 20260905235540 | 89 | 24 | 0.0 | 0.0 | 0.00 | 0.00 | 0.00 | 49 | 1010.2 |
| 20260905235038 | 89 | 24 | 0.0 | 0.0 | 0.00 | 0.00 | 0.00 | 49 | 1010.2 |
| 20260905234538 | 90 | 24 | 0.0 | 0.0 | 0.00 | 0.00 | 0.00 | 49 | 1010.3 |
| 20260905234037 | 90 | 24 | 0.0 | 0.0 | 0.00 | 0.00 | 0.00 | 47 | 1010.3 |
| 20260905233537 | 90 | 24 | 0.0 | 0.0 | 0.00 | 0.00 | 0.00 | 47 | 1010.3 |
| 20260905233037 | 91 | 24 | 0.0 | 0.0 | 0.00 | 0.00 | 0.00 | 47 | 1010.1 |
| 20260905232536 | 91 | 24 | 0.0 | 0.0 | 0.00 | 0.00 | 0.00 | 46 | 1010.2 |
| 20260905232036 | 91 | 24 | 0.0 | 0.0 | 0.00 | 0.00 | 0.00 | 45 | 1010.1 |
| 20260905231537 | 91 | 24 | 0.0 | 0.0 | 0.00 | 0.00 | 0.00 | 44 | 1009.9 |
| 20260905231036 | 92 | 20 | 0.0 | 0.0 | 0.00 | 0.00 | 0.00 | 44 | 1009.8 |
| 20260905230536 | 92 | 19 | 0.0 | 0.0 | 0.00 | 0.00 | 0.00 | 44 | 1009.8 |
| 20260905230036 | 92 | 32 | 0.0 | 0.0 | 0.00 | 0.00 | 0.00 | 43 | 1009.7 |
| 20260905225536 | 92 | 32 | 0.0 | 0.0 | 0.00 | 0.00 | 0.00 | 43 | 1009.6 |
| 20260905225036 | 92 | 32 | 0.0 | 0.0 | 0.00 | 0.00 | 0.00 | 43 | 1009.6 |
| 20260905224607 | 92 | 33 | 0.0 | 0.0 | 0.00 | 0.00 | 0.00 | 42 | 1009.6 |
| 20260905224036 | 93 | 32 | 0.0 | 0.0 | 0.00 | 0.00 | 0.00 | 42 | 1009.7 |
| 20260905223535 | 92 | 34 | 0.0 | 0.0 | 0.00 | 0.00 | 0.00 | 42 | 1009.6 |
| 20260905223042 | 92 | 19 | 0.0 | 0.0 | 0.00 | 0.00 | 0.00 | 42 | 1009.6 |
| 20260905222535 | 92 | 36 | 0.0 | 0.0 | 0.00 | 0.00 | 0.00 | 42 | 1009.7 |
| 20260905222037 | 92 | 9 | 0.0 | 0.0 | 0.00 | 0.00 | 0.00 | 42 | 1009.7 |
| 20260905221536 | 92 | 355 | 0.0 | 0.0 | 0.00 | 0.00 | 0.00 | 41 | 1009.7 |
| 20260905221035 | 93 | 360 | 0.0 | 0.0 | 0.00 | 0.00 | 0.00 | 40 | 1009.7 |
| 20260905220534 | 93 | 5 | 0.0 | 0.0 | 0.00 | 0.00 | 0.00 | 39 | 1009.6 |
| 20260905220034 | 93 | 22 | 0.0 | 0.0 | 0.00 | 0.00 | 0.00 | 39 | 1009.6 |
| 20260905215534 | 93 | 17 | 0.0 | 0.0 | 0.00 | 0.00 | 0.00 | 40 | 1009.6 |
| 20260905215032 | 93 | 360 | 0.0 | 0.0 | 0.00 | 0.00 | 0.00 | 40 | 1009.7 |
| 20260905214538 | 93 | 18 | 0.0 | 0.0 | 0.00 | 0.00 | 0.00 | 39 | 1009.7 |
| 20260905214032 | 93 | 346 | 0.0 | 0.0 | 0.00 | 0.00 | 0.00 | 40 | 1009.7 |
| 20260905213533 | 94 | 314 | 0.0 | 0.0 | 0.00 | 0.00 | 0.00 | 40 | 1009.8 |
| 20260905213033 | 93 | 348 | 0.0 | 0.0 | 0.00 | 0.00 | 0.00 | 40 | 1009.9 |
| 20260905212535 | 94 | 347 | 0.0 | 0.0 | 0.00 | 0.00 | 0.00 | 39 | 1009.8 |
| 20260905212030 | 94 | 343 | 0.0 | 0.0 | 0.00 | 0.00 | 0.00 | 39 | 1009.7 |
| 20260905211542 | 94 | 360 | 0.0 | 0.0 | 0.00 | 0.00 | 0.00 | 40 | 1009.8 |
| 20260905211032 | 94 | 355 | 0.0 | 0.0 | 0.00 | 0.00 | 0.00 | 38 | 1009.8 |
| 20260905210530 | 94 | 11 | 0.0 | 0.0 | 0.00 | 0.00 | 0.00 | 38 | 1009.8 |
| 20260905210040 | 95 | 344 | 0.0 | 0.0 | 0.00 | 0.00 | 0.00 | 37 | 1010.0 |
| 20260905205529 | 95 | 304 | 0.0 | 0.0 | 0.00 | 0.00 | 0.00 | 38 | 1009.9 |
| 20260905205029 | 96 | 328 | 0.0 | 0.9 | 0.00 | 0.00 | 0.00 | 36 | 1010.0 |
| 20260905204528 | 97 | 290 | 0.0 | 0.9 | 0.00 | 0.00 | 0.00 | 36 | 1010.0 |
| 20260905204027 | 96 | 340 | 0.0 | 0.0 | 0.00 | 0.00 | 0.00 | 38 | 1010.1 |
| 20260905203527 | 96 | 346 | 0.0 | 0.0 | 0.00 | 0.00 | 0.00 | 37 | 1010.2 |
| 20260905203027 | 94 | 303 | 0.0 | 0.0 | 0.00 | 0.00 | 0.00 | 39 | 1010.3 |
| 20260905202527 | 94 | 300 | 0.0 | 0.0 | 0.00 | 0.00 | 0.00 | 40 | 1010.3 |
| 20260905202024 | 93 | 327 | 0.0 | 0.0 | 0.00 | 0.00 | 0.00 | 41 | 1010.4 |
| 20260905201524 | 93 | 285 | 0.0 | 0.9 | 0.00 | 0.00 | 0.00 | 40 | 1010.5 |
| 20260905201024 | 93 | 238 | 0.0 | 0.0 | 0.00 | 0.00 | 0.00 | 41 | 1010.6 |
| 20260905200527 | 93 | 291 | 0.0 | 0.0 | 0.00 | 0.00 | 0.00 | 40 | 1010.7 |
| 20260905200027 | 95 | 296 | 0.0 | 0.0 | 0.00 | 0.00 | 0.00 | 39 | 1010.7 |
| 20260905195523 | 95 | 339 | 0.0 | 0.0 | 0.00 | 0.00 | 0.00 | 38 | 1010.7 |
| 20260905195026 | 96 | 301 | 0.0 | 0.0 | 0.00 | 0.00 | 0.00 | 38 | 1010.7 |
| 20260905194521 | 96 | 5 | 0.0 | 0.0 | 0.00 | 0.00 | 0.00 | 37 | 1010.8 |
| 20260905194021 | 95 | 349 | 0.0 | 0.0 | 0.00 | 0.00 | 0.00 | 38 | 1011.0 |
| 20260905193522 | 95 | 283 | 0.0 | 0.0 | 0.00 | 0.00 | 0.00 | 38 | 1011.0 |
| 20260905193019 | 95 | 333 | 0.0 | 0.0 | 0.00 | 0.00 | 0.00 | 38 | 1011.1 |
| 20260905192520 | 95 | 342 | 0.0 | 0.0 | 0.00 | 0.00 | 0.00 | 38 | 1011.1 |
| 20260905192020 | 95 | 256 | 0.0 | 0.0 | 0.00 | 0.00 | 0.00 | 39 | 1011.1 |
| 20260905191518 | 95 | 261 | 0.0 | 0.0 | 0.00 | 0.00 | 0.00 | 37 | 1011.1 |
| 20260905191019 | 97 | 209 | 0.0 | 0.0 | 0.00 | 0.00 | 0.00 | 36 | 1011.2 |
| 20260905190517 | 96 | 277 | 0.0 | 0.0 | 0.00 | 0.00 | 0.00 | 37 | 1011.3 |
| 20260905190017 | 95 | 290 | 0.0 | 0.9 | 0.00 | 0.00 | 0.00 | 37 | 1011.4 |
| 20260905185516 | 97 | 251 | 0.0 | 0.9 | 0.00 | 0.00 | 0.00 | 36 | 1011.4 |
| 20260905185014 | 96 | 46 | 0.0 | 0.0 | 0.00 | 0.00 | 0.00 | 37 | 1011.6 |
| 20260905184525 | 94 | 28 | 0.0 | 0.0 | 0.00 | 0.00 | 0.00 | 38 | 1011.8 |
| 20260905184014 | 93 | 24 | 0.0 | 0.0 | 0.00 | 0.00 | 0.00 | 39 | 1011.8 |
| 20260905183514 | 93 | 350 | 0.0 | 0.0 | 0.00 | 0.00 | 0.00 | 39 | 1011.9 |
| 20260905183013 | 94 | 309 | 0.0 | 0.0 | 0.00 | 0.00 | 0.00 | 39 | 1011.9 |
| 20260905182512 | 94 | 150 | 0.0 | 0.0 | 0.00 | 0.00 | 0.00 | 39 | 1012.0 |
| 20260905182012 | 94 | 159 | 0.0 | 0.0 | 0.00 | 0.00 | 0.00 | 38 | 1012.0 |
| 20260905181512 | 94 | 156 | 0.0 | 0.0 | 0.00 | 0.00 | 0.00 | 39 | 1012.0 |
| 20260905181012 | 94 | 208 | 0.0 | 0.0 | 0.00 | 0.00 | 0.00 | 39 | 1012.0 |
| 20260905180515 | 94 | 181 | 0.0 | 0.0 | 0.00 | 0.00 | 0.00 | 39 | 1012.1 |
| 20260905180011 | 94 | 178 | 0.0 | 0.0 | 0.00 | 0.00 | 0.00 | 40 | 1012.3 |
| 20260905175511 | 93 | 306 | 0.0 | 0.0 | 0.00 | 0.00 | 0.00 | 39 | 1012.4 |
| 20260905175011 | 94 | 144 | 0.0 | 0.0 | 0.00 | 0.00 | 0.00 | 39 | 1012.4 |
| 20260905174510 | 94 | 140 | 0.0 | 0.0 | 0.00 | 0.00 | 0.00 | 38 | 1012.5 |
| 20260905174009 | 93 | 144 | 0.0 | 0.0 | 0.00 | 0.00 | 0.00 | 39 | 1012.5 |
| 20260905173509 | 93 | 25 | 0.0 | 0.0 | 0.00 | 0.00 | 0.00 | 40 | 1012.7 |
| 20260905173007 | 93 | 131 | 0.0 | 0.0 | 0.00 | 0.00 | 0.00 | 40 | 1012.7 |
| 20260905172508 | 93 | 68 | 0.0 | 0.0 | 0.00 | 0.00 | 0.00 | 39 | 1012.8 |
| 20260905172009 | 92 | 142 | 0.0 | 0.0 | 0.00 | 0.00 | 0.00 | 40 | 1012.8 |
| 20260905171505 | 92 | 144 | 0.0 | 0.0 | 0.00 | 0.00 | 0.00 | 40 | 1012.8 |
| 20260905171004 | 91 | 90 | 0.0 | 0.0 | 0.00 | 0.00 | 0.00 | 42 | 1012.7 |
| 20260905170504 | 92 | 110 | 0.0 | 0.0 | 0.00 | 0.00 | 0.00 | 40 | 1012.9 |
| 20260905170004 | 91 | 111 | 0.0 | 0.0 | 0.00 | 0.00 | 0.00 | 42 | 1013.0 |
| 20260905165501 | 91 | 140 | 0.0 | 0.0 | 0.00 | 0.00 | 0.00 | 44 | 1013.2 |
| 20260905165100 | 90 | 111 | 0.0 | 0.0 | 0.00 | 0.00 | 0.00 | 45 | 1013.2 |
| 20260905164607 | 89 | 76 | 0.0 | 0.0 | 0.00 | 0.00 | 0.00 | 45 | 1013.2 |
| 20260905164058 | 89 | 105 | 0.0 | 0.0 | 0.00 | 0.00 | 0.00 | 46 | 1013.3 |
| 20260905163558 | 89 | 123 | 0.0 | 0.0 | 0.00 | 0.00 | 0.00 | 46 | 1013.3 |
| 20260905163059 | 89 | 142 | 0.0 | 0.0 | 0.00 | 0.00 | 0.00 | 47 | 1013.4 |
| 20260905162556 | 88 | 113 | 0.0 | 0.0 | 0.00 | 0.00 | 0.00 | 49 | 1013.6 |
| 20260905162054 | 87 | 138 | 0.0 | 0.0 | 0.00 | 0.00 | 0.00 | 50 | 1013.5 |
| 20260905161606 | 87 | 84 | 0.0 | 0.0 | 0.00 | 0.00 | 0.00 | 51 | 1013.4 |
| 20260905161052 | 86 | 110 | 0.0 | 0.0 | 0.00 | 0.00 | 0.00 | 52 | 1013.3 |
| 20260905160552 | 86 | 38 | 0.0 | 0.9 | 0.00 | 0.00 | 0.00 | 52 | 1013.4 |
| 20260905160051 | 86 | 99 | 0.0 | 0.0 | 0.00 | 0.00 | 0.00 | 52 | 1013.4 |
| 20260905155549 | 85 | 73 | 0.0 | 0.0 | 0.00 | 0.00 | 0.00 | 52 | 1013.4 |
| 20260905155049 | 85 | 112 | 0.0 | 0.9 | 0.00 | 0.00 | 0.00 | 51 | 1013.6 |
| 20260905154548 | 85 | 61 | 0.0 | 0.0 | 0.00 | 0.00 | 0.00 | 52 | 1013.6 |
| 20260905154047 | 84 | 78 | 0.0 | 0.0 | 0.00 | 0.00 | 0.00 | 55 | 1013.7 |
| 20260905153547 | 84 | 65 | 0.0 | 0.9 | 0.00 | 0.00 | 0.00 | 56 | 1013.8 |
| 20260905153046 | 84 | 117 | 0.0 | 0.9 | 0.00 | 0.00 | 0.00 | 55 | 1013.9 |
| 20260905152546 | 84 | 129 | 0.0 | 0.0 | 0.00 | 0.00 | 0.00 | 55 | 1013.7 |
| 20260905152046 | 83 | 142 | 0.0 | 0.0 | 0.00 | 0.00 | 0.00 | 56 | 1013.8 |
| 20260905151546 | 83 | 105 | 0.0 | 0.0 | 0.00 | 0.00 | 0.00 | 56 | 1013.7 |
| 20260905151045 | 82 | 111 | 0.0 | 0.0 | 0.00 | 0.00 | 0.00 | 58 | 1013.8 |
| 20260905150545 | 81 | 122 | 0.0 | 0.9 | 0.00 | 0.00 | 0.00 | 57 | 1013.7 |
| 20260905150045 | 81 | 86 | 0.0 | 0.9 | 0.00 | 0.00 | 0.00 | 58 | 1013.6 |
| 20260905145545 | 81 | 73 | 0.0 | 0.0 | 0.00 | 0.00 | 0.00 | 58 | 1013.8 |
| 20260905145045 | 81 | 111 | 0.0 | 0.0 | 0.00 | 0.00 | 0.00 | 58 | 1013.9 |
| 20260905144545 | 81 | 93 | 0.0 | 0.0 | 0.00 | 0.00 | 0.00 | 58 | 1013.7 |
| 20260905144044 | 81 | 103 | 0.0 | 0.0 | 0.00 | 0.00 | 0.00 | 57 | 1013.7 |
| 20260905143545 | 81 | 41 | 0.0 | 0.0 | 0.00 | 0.00 | 0.00 | 57 | 1013.8 |
| 20260905143044 | 81 | 109 | 0.0 | 0.9 | 0.00 | 0.00 | 0.00 | 57 | 1013.8 |
| 20260905142548 | 81 | 79 | 0.0 | 0.9 | 0.00 | 0.00 | 0.00 | 58 | 1013.7 |
| 20260905142044 | 81 | 54 | 0.0 | 0.9 | 0.00 | 0.00 | 0.00 | 58 | 1013.8 |
| 20260905141544 | 81 | 44 | 0.0 | 0.9 | 0.00 | 0.00 | 0.00 | 57 | 1013.9 |
| 20260905141045 | 82 | 111 | 0.0 | 0.0 | 0.00 | 0.00 | 0.00 | 57 | 1014.0 |
| 20260905140543 | 82 | 123 | 0.0 | 0.9 | 0.00 | 0.00 | 0.00 | 57 | 1013.7 |
| 20260905140044 | 83 | 94 | 0.0 | 0.9 | 0.00 | 0.00 | 0.00 | 56 | 1014.1 |
| 20260905135542 | 84 | 63 | 0.0 | 0.0 | 0.00 | 0.00 | 0.00 | 57 | 1014.0 |
| 20260905135040 | 84 | 69 | 0.0 | 0.0 | 0.00 | 0.00 | 0.00 | 56 | 1013.6 |
| 20260905134540 | 83 | 124 | 0.0 | 0.0 | 0.00 | 0.00 | 0.00 | 57 | 1013.4 |
| 20260905134039 | 83 | 91 | 0.0 | 0.0 | 0.00 | 0.00 | 0.00 | 56 | 1013.4 |
| 20260905133538 | 82 | 77 | 0.0 | 0.0 | 0.00 | 0.00 | 0.00 | 57 | 1013.5 |
| 20260905133039 | 82 | 74 | 0.0 | 0.0 | 0.00 | 0.00 | 0.00 | 58 | 1013.4 |
| 20260905132535 | 81 | 59 | 0.0 | 0.0 | 0.00 | 0.00 | 0.00 | 57 | 1013.4 |
| 20260905132034 | 81 | 57 | 0.0 | 0.9 | 0.00 | 0.00 | 0.00 | 57 | 1013.6 |
| 20260905131533 | 81 | 46 | 0.0 | 0.0 | 0.00 | 0.00 | 0.00 | 58 | 1013.5 |
| 20260905131032 | 80 | 44 | 0.0 | 0.0 | 0.00 | 0.00 | 0.00 | 58 | 1013.5 |
| 20260905130530 | 80 | 32 | 0.0 | 0.0 | 0.00 | 0.00 | 0.00 | 59 | 1013.6 |
| 20260905130030 | 80 | 36 | 0.0 | 0.0 | 0.00 | 0.00 | 0.00 | 59 | 1013.6 |
| 20260905125533 | 79 | 37 | 0.0 | 0.0 | 0.00 | 0.00 | 0.00 | 59 | 1013.6 |
| 20260905125030 | 79 | 37 | 0.0 | 0.0 | 0.00 | 0.00 | 0.00 | 59 | 1013.6 |
| 20260905124527 | 79 | 194 | 0.0 | 0.0 | 0.00 | 0.00 | 0.00 | 61 | 1013.6 |
| 20260905124025 | 78 | 194 | 0.0 | 0.0 | 0.00 | 0.00 | 0.00 | 62 | 1013.5 |
| 20260905123524 | 78 | 194 | 0.0 | 0.0 | 0.00 | 0.00 | 0.00 | 63 | 1013.5 |
| 20260905123023 | 77 | 194 | 0.0 | 0.0 | 0.00 | 0.00 | 0.00 | 63 | 1013.3 |
| 20260905122523 | 76 | 194 | 0.0 | 0.0 | 0.00 | 0.00 | 0.00 | 64 | 1013.3 |
| 20260905122022 | 76 | 194 | 0.0 | 0.0 | 0.00 | 0.00 | 0.00 | 65 | 1013.4 |
| 20260905121522 | 75 | 193 | 0.0 | 0.0 | 0.00 | 0.00 | 0.00 | 65 | 1013.4 |
| 20260905121023 | 75 | 192 | 0.0 | 0.0 | 0.00 | 0.00 | 0.00 | 65 | 1013.3 |
| 20260905120522 | 75 | 192 | 0.0 | 0.0 | 0.00 | 0.00 | 0.00 | 65 | 1013.3 |
| 20260905120021 | 75 | 192 | 0.0 | 0.0 | 0.00 | 0.00 | 0.00 | 64 | 1013.3 |
| 20260905115524 | 74 | 192 | 0.0 | 0.0 | 0.00 | 0.00 | 0.00 | 64 | 1013.1 |
| 20260905115023 | 74 | 193 | 0.0 | 0.0 | 0.00 | 0.00 | 0.00 | 64 | 1013.0 |
| 20260905114520 | 74 | 193 | 0.0 | 0.0 | 0.00 | 0.00 | 0.00 | 64 | 1013.0 |
| 20260905114019 | 75 | 193 | 0.0 | 0.0 | 0.00 | 0.00 | 0.00 | 63 | 1013.0 |
| 20260905113524 | 75 | 193 | 0.0 | 0.0 | 0.00 | 0.00 | 0.00 | 63 | 1012.9 |
| 20260905113018 | 75 | 193 | 0.0 | 0.0 | 0.00 | 0.00 | 0.00 | 63 | 1012.8 |
| 20260905112517 | 75 | 193 | 0.0 | 0.0 | 0.00 | 0.00 | 0.00 | 62 | 1012.7 |
| 20260905112018 | 75 | 193 | 0.0 | 0.0 | 0.00 | 0.00 | 0.00 | 62 | 1012.7 |
| 20260905111519 | 75 | 193 | 0.0 | 0.0 | 0.00 | 0.00 | 0.00 | 62 | 1012.7 |
| 20260905111017 | 76 | 193 | 0.0 | 0.0 | 0.00 | 0.00 | 0.00 | 62 | 1012.5 |
| 20260905110518 | 76 | 193 | 0.0 | 0.0 | 0.00 | 0.00 | 0.00 | 61 | 1012.4 |
| 20260905110017 | 76 | 193 | 0.0 | 0.0 | 0.00 | 0.00 | 0.00 | 61 | 1012.4 |